Weather History for Newberry, MI

Change the Weather History Date:

Sunday, December 9, 2012

  Actual Average Record
Temperature  
Mean Temperature 22 °F -  
Max Temperature 26 °F 29 °F 53 °F (1939)
Min Temperature 17 °F 16 °F -16 °F (1927)
Degree Days  
Heating Degree Days 44    
Moisture  
Dew Point 20 °F    
Average Humidity 88    
Maximum Humidity 100    
Minimum Humidity 80    
Precipitation  
Precipitation 0.00 in - - ()
Sea Level Pressure  
Sea Level Pressure 30.11 in    
Wind  
Wind Speed 4 mph (ENE)    
Max Wind Speed 15 mph    
Max Gust Speed 18 mph    
Visibility 7 miles    
Events Snow    
Averages and records for this station are not official NWS values.
T = Trace of Precipitation, MM = Missing Value Source: NWS Daily Summary

Daily Weather History Graph

Daily Weather History Graph

Search for Another Location

Airport:

Trip Planner

Search our weather history database for the weather conditions in past years. The results will help you decide how hot, cold, wet, or windy it might be!

Date:

Astronomy

Dec. 09, 2012 Rise Set
Actual Time 8:13 AM EST 4:55 PM EST
Civil Twilight 7:38 AM EST 5:29 PM EST
Nautical Twilight 7:00 AM EST 6:07 PM EST
Astronomical Twilight 6:24 AM EST 6:44 PM EST
Moon 3:34 AM EST (12/9) 2:10 PM EST (12/9)
Length of Visible Light 9h 51m
Length of Day
8h 41m
Waning Crescent, 19% of the Moon is Illuminated
Dec 9
Waning Crescent
Dec 13
New
Dec 20
First Quarter
Dec 28
Full
Jan 4
Last Quarter

Hourly Weather History & Observations

Time (EST) Temp. Windchill Dew Point Humidity Pressure Visibility Wind Dir Wind Speed Gust Speed Precip Events Conditions
12:14 AM 26.6 °F - 23.0 °F 86% 30.18 in 10.0 mi Calm Calm - N/A   Overcast
12:34 AM 26.6 °F - 23.0 °F 86% 30.18 in 10.0 mi Calm Calm - N/A   Overcast
12:55 AM 26.6 °F - 21.2 °F 80% 30.18 in 10.0 mi Calm Calm - N/A   Overcast
1:14 AM 24.8 °F - 21.2 °F 86% 30.18 in 10.0 mi Calm Calm - N/A   Mostly Cloudy
1:35 AM 24.8 °F - 21.2 °F 86% 30.20 in 10.0 mi Calm Calm - N/A   Scattered Clouds
1:55 AM 21.2 °F - 19.4 °F 93% 30.20 in 10.0 mi Calm Calm - N/A   Scattered Clouds
2:14 AM 21.2 °F - 19.4 °F 93% 30.20 in 10.0 mi Calm Calm - N/A   Clear
2:35 AM 17.6 °F - 15.8 °F 93% 30.22 in 10.0 mi Calm Calm - N/A   Mostly Cloudy
2:55 AM 19.4 °F 14.3 °F 17.6 °F 93% 30.23 in 10.0 mi South 3.5 mph - N/A   Overcast
3:14 AM 23.0 °F 18.4 °F 21.2 °F 93% 30.23 in 10.0 mi South 3.5 mph - N/A   Overcast
3:35 AM 24.8 °F - 21.2 °F 86% 30.23 in 10.0 mi Calm Calm - N/A   Mostly Cloudy
3:55 AM 23.0 °F - 19.4 °F 86% 30.23 in 10.0 mi Calm Calm - N/A   Overcast
4:14 AM 24.8 °F - 19.4 °F 80% 30.23 in 10.0 mi Calm Calm - N/A   Overcast
4:35 AM 21.2 °F - 19.4 °F 93% 30.25 in 10.0 mi Calm Calm - N/A   Overcast
4:54 AM 23.0 °F - 21.2 °F 93% 30.25 in 10.0 mi Calm Calm - N/A   Overcast
5:14 AM 24.8 °F - 21.2 °F 86% 30.25 in 10.0 mi Calm Calm - N/A   Overcast
5:34 AM 23.0 °F - 21.2 °F 93% 30.24 in 10.0 mi Calm Calm - N/A   Mostly Cloudy
5:54 AM 23.0 °F 18.4 °F 19.4 °F 86% 30.23 in 10.0 mi NE 3.5 mph - N/A   Mostly Cloudy
6:15 AM 21.2 °F 16.4 °F 19.4 °F 93% 30.22 in 10.0 mi ENE 3.5 mph - N/A   Scattered Clouds
6:34 AM 21.2 °F 16.4 °F 17.6 °F 86% 30.23 in 10.0 mi ESE 3.5 mph - N/A   Clear
6:55 AM 19.4 °F - 17.6 °F 93% 30.24 in 10.0 mi Calm Calm - N/A   Clear
7:15 AM 21.2 °F - 19.4 °F 93% 30.22 in 10.0 mi Calm Calm - N/A   Mostly Cloudy
7:34 AM 21.2 °F 14.9 °F 19.4 °F 93% 30.22 in 10.0 mi East 4.6 mph - N/A   Overcast
7:55 AM 21.2 °F - 19.4 °F 93% 30.23 in 10.0 mi Calm Calm - N/A   Overcast
8:15 AM 21.2 °F 16.4 °F 19.4 °F 93% 30.22 in 10.0 mi North 3.5 mph - N/A   Overcast
8:34 AM 21.2 °F - 19.4 °F 93% 30.23 in 10.0 mi Calm Calm - N/A   Overcast
8:55 AM 23.0 °F - 21.2 °F 93% 30.23 in 10.0 mi Calm Calm - N/A   Overcast
9:15 AM 23.0 °F 18.4 °F 21.2 °F 93% 30.24 in 10.0 mi ENE 3.5 mph - N/A   Overcast
9:34 AM 24.8 °F 19.1 °F 21.2 °F 86% 30.24 in 10.0 mi East 4.6 mph - N/A   Overcast
9:55 AM 24.8 °F 16.9 °F 21.2 °F 86% 30.23 in 10.0 mi ENE 6.9 mph - N/A   Mostly Cloudy
10:14 AM 24.8 °F 17.9 °F 21.2 °F 86% 30.23 in 10.0 mi East 5.8 mph - N/A   Mostly Cloudy
10:35 AM 26.6 °F 19.1 °F 21.2 °F 80% 30.23 in 10.0 mi East 6.9 mph - N/A   Overcast
10:55 AM 26.6 °F 18.2 °F 21.2 °F 80% 30.21 in 10.0 mi ENE 8.1 mph - N/A   Overcast
11:14 AM 26.6 °F 17.5 °F 21.2 °F 80% 30.19 in 10.0 mi ENE 9.2 mph - N/A   Overcast
11:35 AM 26.6 °F 16.8 °F 21.2 °F 80% 30.19 in 10.0 mi ENE 10.4 mph - N/A   Overcast
11:54 AM 26.6 °F 16.8 °F 21.2 °F 80% 30.19 in 10.0 mi East 10.4 mph - N/A   Overcast
12:14 PM 26.6 °F 16.8 °F 21.2 °F 80% 30.18 in 10.0 mi ENE 10.4 mph - N/A   Overcast
12:35 PM 26.6 °F 16.8 °F 21.2 °F 80% 30.17 in 10.0 mi East 10.4 mph 17.3 mph N/A   Overcast
12:54 PM 26.6 °F 15.2 °F 21.2 °F 80% 30.16 in 10.0 mi ENE 13.8 mph 18.4 mph N/A   Overcast
1:15 PM 26.6 °F 16.2 °F 21.2 °F 80% 30.15 in 10.0 mi East 11.5 mph 17.3 mph N/A   Overcast
1:35 PM 26.6 °F 15.7 °F 21.2 °F 80% 30.13 in 10.0 mi ENE 12.7 mph - N/A   Overcast
1:54 PM 26.6 °F 16.2 °F 21.2 °F 80% 30.12 in 10.0 mi ENE 11.5 mph - N/A   Overcast
2:15 PM 26.6 °F 15.2 °F 21.2 °F 80% 30.11 in 10.0 mi East 13.8 mph 18.4 mph N/A   Overcast
2:35 PM 26.6 °F 15.2 °F 21.2 °F 80% 30.10 in 10.0 mi East 13.8 mph 18.4 mph N/A   Overcast
2:54 PM 26.6 °F 14.7 °F 21.2 °F 80% 30.09 in 10.0 mi ENE 15.0 mph - N/A   Overcast
3:15 PM 26.6 °F 15.7 °F 21.2 °F 80% 30.08 in 10.0 mi East 12.7 mph - N/A   Overcast
3:34 PM 26.6 °F 16.8 °F 21.2 °F 80% 30.08 in 10.0 mi ENE 10.4 mph - N/A   Overcast
3:54 PM 24.8 °F 14.6 °F 21.2 °F 86% 30.07 in 10.0 mi ENE 10.4 mph - N/A   Overcast
4:15 PM 24.8 °F 15.3 °F 21.2 °F 86% 30.07 in 1.5 mi ENE 9.2 mph - N/A Snow Light Snow
4:34 PM 24.8 °F 14.6 °F 21.2 °F 86% 30.06 in 1.5 mi NE 10.4 mph - N/A Snow Light Snow
4:55 PM 23.0 °F 11.7 °F 21.2 °F 93% 30.04 in 1.5 mi ENE 11.5 mph - N/A Snow Light Snow
5:15 PM 23.0 °F 12.4 °F 21.2 °F 93% 30.03 in 1.8 mi ENE 10.4 mph - N/A Snow Light Snow
5:34 PM 23.0 °F 12.4 °F 19.4 °F 86% 30.01 in 2.0 mi ENE 10.4 mph - N/A Snow Light Snow
5:55 PM 23.0 °F 12.4 °F 19.4 °F 86% 30.00 in 2.0 mi ENE 10.4 mph - N/A Snow Light Snow
6:15 PM 21.2 °F 9.5 °F 19.4 °F 93% 29.99 in 2.0 mi ENE 11.5 mph - N/A Snow Light Snow
6:34 PM 21.2 °F 10.9 °F 19.4 °F 93% 29.98 in 2.5 mi ENE 9.2 mph - N/A Snow Light Snow
6:55 PM 21.2 °F 9.5 °F 19.4 °F 93% 29.97 in 2.0 mi ENE 11.5 mph - N/A Snow Light Snow
7:14 PM 21.2 °F 10.1 °F 19.4 °F 93% 29.96 in 1.8 mi ENE 10.4 mph - N/A Snow Light Snow
7:34 PM 21.2 °F 11.7 °F 19.4 °F 93% 29.96 in 3.0 mi NE 8.1 mph - N/A Snow Light Snow
7:55 PM 21.2 °F 10.1 °F 19.4 °F 93% 29.94 in 2.0 mi ENE 10.4 mph - N/A Snow Light Snow
8:14 PM 21.2 °F 10.9 °F 19.4 °F 93% 29.93 in 2.5 mi NE 9.2 mph - N/A Snow Light Snow
8:34 PM 21.2 °F 10.1 °F 19.4 °F 93% 29.92 in 2.5 mi NE 10.4 mph 17.3 mph N/A Snow Light Snow
8:55 PM 21.2 °F 9.5 °F 19.4 °F 93% 29.92 in 2.5 mi ENE 11.5 mph - N/A Snow Light Snow
9:14 PM 21.2 °F 9.5 °F 19.4 °F 93% 29.91 in 1.8 mi ENE 11.5 mph 17.3 mph N/A Snow Light Snow
9:35 PM 21.2 °F 10.9 °F 19.4 °F 93% 29.90 in 1.8 mi NE 9.2 mph - N/A Snow Light Snow
9:55 PM 21.2 °F 13.6 °F 19.4 °F 93% 29.90 in 1.5 mi NE 5.8 mph - N/A Snow Light Snow
10:14 PM 21.2 °F 13.6 °F 19.4 °F 93% 29.89 in 1.2 mi NNE 5.8 mph - N/A Snow Light Snow
10:35 PM 21.2 °F 14.9 °F 19.4 °F 93% 29.88 in 2.0 mi NNE 4.6 mph - N/A Snow Light Snow
10:55 PM 21.2 °F 13.6 °F 21.2 °F 100% 29.87 in 3.0 mi NE 5.8 mph - N/A Snow Light Snow
11:14 PM 21.2 °F 13.6 °F 21.2 °F 100% 29.84 in 2.0 mi NE 5.8 mph - N/A Snow Light Snow
11:35 PM 21.2 °F 16.4 °F 21.2 °F 100% 29.84 in 3.0 mi NNE 3.5 mph - N/A Snow Light Snow
11:54 PM 21.2 °F 14.9 °F 21.2 °F 100% 29.82 in 5.0 mi NE 4.6 mph - N/A Snow Light Snow